User: anonymous   Login
Location: Unspecified
(0.0000°N, 0.0000°E)
Time: 20:17:46
(UTC+00:00)
Language:

STARLINK-34312 - Orbit

View from above orbital plane
View from above orbital plane
View from above satellite
View from above satellite

Ground track
Ground track

The orbit is defined by the following mean orbital elements,

1 64711U          26145.34645340 +.00000000 +00000-0 +27028-3 0 00001
2 64711  69.9999 121.1540 0003968 261.7696  98.3013 14.98336433    07
Epoch (UTC): 25 May 2026 08:18:53
Eccentricity: 0.0003968
inclination: 69.9999°
perigee height: 569 km
apogee height: 575 km
right ascension of ascending node: 121.1540°
argument of perigee: 261.7696°
revolutions per day: 14.98336433
mean anomaly at epoch: 98.3013°

The dashed part of the orbit path shows where the satellite is in the earth's shadow,  

DLR